Wind_Speed
49 52 53 52 50 48 46 46 45 40 36 33 31 31 32 31 29 26 23 22 32 33 30 32 33 34 34 32 32 32 32 30 28 27 32 39 38 34 32 30 30 29 27 27 27 28 29 29 31 30 29 28 27 26 28 27 24 23 24 24 23 22 22 22 22 22 23 21 21 22 22 21 22 23 21 18 15 11 9 9 10 12 12 12 11 11
50 52 52 50 48 47 46 45 43 39 36 34 29 25 31 32 25 21 21 22 30 35 28 29 32 32 32 32 30 30 30 28 28 28 31 37 37 33 32 31 31 30 28 27 27 27 26 29 34 33 31 31 28 29 30 27 25 25 24 22 22 21 22 23 22 22 22 21 22 23 23 22 23 23 21 20 17 11 10 10 11 12 12 11 11 11
52 53 50 48 47 47 46 44 42 39 36 37 30 22 27 31 26 19 17 21 30 37 29 28 30 28 29 33 29 28 30 29 30 32 34 35 33 31 31 31 32 29 26 25 27 28 26 26 31 34 34 32 30 31 30 26 25 25 22 21 22 22 23 23 23 23 23 23 23 24 24 24 23 22 20 18 14 11 12 11 11 12 12 12 12 11
52 51 49 48 46 47 47 44 43 39 36 39 35 27 23 27 29 22 16 25 37 40 31 26 28 26 26 34 32 28 30 31 31 33 34 32 30 29 30 32 33 29 24 23 25 26 26 26 28 32 32 30 30 29 28 28 26 24 23 22 22 23 23 23 24 24 23 23 24 24 23 22 21 19 18 16 12 12 13 12 12 12 11 12 12 12
50 47 46 46 46 46 46 46 43 39 38 40 39 34 24 22 28 23 20 32 39 37 33 27 26 24 25 34 36 30 29 29 30 31 32 31 29 28 30 33 34 31 26 25 24 24 26 29 31 32 30 28 28 27 25 25 24 24 25 24 25 26 25 25 25 25 24 23 23 24 22 20 20 18 16 16 16 15 14 13 13 12 12 12 12 11
49 46 44 43 44 45 45 46 44 39 40 41 43 41 29 21 23 21 22 35 37 35 34 28 26 23 25 34 36 32 30 30 30 30 30 32 31 30 32 34 33 32 28 25 23 22 24 29 30 31 29 26 26 26 24 23 22 23 24 26 28 28 28 27 26 25 24 22 22 23 22 18 18 19 16 17 17 15 13 13 12 12 12 12 11 11
49 47 44 42 43 44 44 45 44 41 41 43 44 42 34 27 24 20 24 32 35 39 34 29 31 24 22 31 34 35 34 30 29 29 30 33 34 33 35 35 32 29 27 24 23 21 20 24 27 27 27 25 25 25 24 23 23 23 23 25 27 28 29 28 27 26 24 22 20 20 20 17 17 18 15 14 13 12 12 12 12 12 12 11 11 11
50 48 45 42 42 43 43 44 45 42 42 45 43 40 39 35 31 24 28 30 28 31 27 27 33 26 20 28 33 36 34 28 27 28 29 33 34 34 35 33 29 27 26 25 25 23 20 22 24 25 26 24 25 25 26 26 25 24 24 24 25 26 27 26 28 26 22 19 17 16 16 16 18 14 10 9 10 9 11 12 12 12 11 11 11 11
49 49 47 43 42 43 44 44 44 42 42 45 40 38 40 38 37 30 25 30 23 20 21 24 31 32 26 28 32 34 32 28 28 28 28 29 29 30 30 28 29 29 28 27 27 26 25 25 23 22 23 23 23 24 27 27 25 22 21 22 24 25 25 25 26 24 20 18 16 15 14 15 15 11 7 8 9 9 11 11 11 11 11 11 11 12
48 48 46 42 41 42 44 43 43 41 42 41 35 36 40 37 38 30 19 28 26 20 24 22 27 35 33 29 32 32 29 27 28 29 29 27 24 26 28 29 32 32 30 29 29 27 26 26 22 19 21 22 22 22 24 24 23 20 18 19 22 23 23 24 23 22 20 19 19 17 16 17 15 11 9 9 8 9 10 10 10 11 11 12 13 14
47 47 44 42 41 41 43 41 39 40 41 38 31 32 37 38 40 33 23 27 26 24 27 24 25 34 32 31 33 35 33 28 26 28 29 27 24 25 28 30 31 30 28 28 28 27 26 23 20 19 20 21 21 21 21 22 21 19 17 20 21 21 22 22 21 21 21 20 20 18 17 18 16 13 13 11 9 10 10 10 11 11 12 13 14 15
43 46 44 41 40 40 42 39 37 40 41 39 34 29 32 39 45 42 31 27 27 26 26 24 24 26 28 31 28 29 34 31 27 27 25 24 23 25 29 29 28 26 24 24 24 26 25 22 20 20 20 21 22 22 21 22 22 20 20 21 21 22 23 23 21 21 20 19 19 18 18 18 18 17 15 12 10 10 9 11 12 12 14 14 15 16
40 45 44 39 41 42 42 40 39 42 41 40 40 34 31 39 47 48 39 34 35 30 23 22 24 24 27 32 25 19 30 30 28 28 24 21 21 23 27 28 27 27 24 21 21 23 24 22 21 21 21 22 23 23 21 22 22 21 19 18 17 19 21 22 22 21 19 18 17 17 16 17 19 19 15 12 10 10 11 12 13 14 15 15 16 16
30 33 40 38 43 47 45 42 43 46 43 42 46 42 33 35 46 52 48 45 42 31 23 20 23 35 31 23 20 20 25 28 25 27 25 19 18 21 24 26 27 27 24 21 20 20 20 21 22 21 22 23 23 23 22 21 20 18 16 14 14 16 17 18 20 19 17 16 15 14 14 16 18 16 14 12 11 11 12 14 14 14 15 15 16 16
32 31 39 43 47 48 44 44 44 43 41 41 46 44 35 30 37 49 51 46 42 35 30 24 21 33 32 18 18 21 20 27 23 24 25 21 19 21 23 25 26 25 24 22 21 20 19 19 22 24 23 24 24 22 20 18 17 15 13 14 15 16 15 15 16 16 15 15 15 15 15 16 16 14 13 13 12 12 13 14 14 15 15 16 16 16
38 31 34 42 47 46 44 43 39 38 41 42 43 45 41 32 26 36 46 42 38 36 35 34 27 25 23 20 21 21 19 26 23 20 24 25 25 25 24 23 22 23 24 25 26 24 22 21 23 26 25 24 23 19 16 15 15 15 14 15 17 17 15 14 14 15 15 16 17 16 16 16 15 14 14 13 13 13 14 14 15 15 15 15 16 16
37 30 33 40 42 43 46 44 38 37 42 43 45 47 46 37 23 25 37 38 37 35 35 40 37 26 21 22 26 28 26 27 25 24 26 25 25 26 25 22 21 22 23 24 25 24 22 23 26 27 26 24 23 18 15 14 14 15 15 16 17 17 16 15 16 17 17 18 17 17 17 17 16 15 14 14 13 14 15 15 15 15 15 15 16 16
35 33 35 41 40 40 45 44 35 34 40 44 48 48 41 37 29 21 24 29 35 36 34 37 38 34 30 26 27 31 33 33 30 30 31 28 25 23 22 21 20 20 20 21 23 24 24 26 27 28 27 26 25 21 17 15 13 13 14 15 16 16 16 16 17 18 18 17 17 18 18 17 15 15 14 13 14 14 15 15 15 15 15 15 16 16
32 28 26 37 39 37 43 44 32 29 40 43 43 45 40 37 36 28 20 23 32 38 36 33 33 35 31 25 27 30 33 36 31 27 30 29 25 22 20 20 20 19 19 20 22 24 25 26 27 28 29 29 26 23 20 17 15 14 14 15 16 16 17 17 17 16 16 17 18 18 17 15 15 14 13 13 14 15 15 16 16 16 15 16 16 17
28 25 22 32 36 35 43 48 39 34 41 39 34 41 44 38 37 32 22 19 25 32 35 32 28 29 27 26 29 31 30 33 28 25 28 28 26 24 21 22 22 19 19 20 22 25 26 27 28 29 31 31 27 24 22 20 17 16 17 18 18 17 17 16 15 15 17 18 18 17 16 15 14 14 14 14 15 15 16 16 16 15 16 16 16 17
26 26 21 26 32 36 44 49 47 42 43 41 35 39 45 41 37 33 23 16 17 22 28 32 28 23 22 25 26 26 27 30 29 28 30 31 31 29 25 24 23 22 20 20 22 25 26 26 28 31 33 30 26 24 23 21 18 18 18 18 17 17 16 15 16 17 18 19 18 17 16 15 15 14 15 15 15 16 16 16 16 15 16 16 17 18
28 29 24 26 33 40 44 47 47 42 43 48 42 38 42 41 35 33 29 19 15 16 19 28 30 19 16 22 21 21 25 28 28 30 34 35 33 31 30 28 26 25 23 23 25 27 27 28 29 32 30 26 23 22 21 19 17 15 15 15 16 16 15 15 16 17 18 18 18 17 16 16 16 15 15 16 16 16 16 16 16 16 17 18 19 20
29 27 27 29 31 36 41 46 47 38 37 48 47 39 41 42 33 31 33 26 18 16 13 20 27 21 18 23 21 20 22 22 24 29 33 36 34 32 33 31 28 28 26 25 28 30 30 30 30 31 28 25 23 21 17 16 12 10 11 14 16 16 15 15 15 16 17 17 17 16 16 16 16 16 16 16 16 16 16 16 16 17 18 19 20 22
31 25 26 27 22 24 31 40 46 38 33 44 48 44 43 42 34 29 30 26 19 16 13 13 20 23 25 26 22 21 21 18 20 25 30 34 35 32 31 30 29 27 25 26 29 32 33 30 29 27 24 23 21 17 14 12 9 9 12 14 15 15 15 15 15 15 16 16 16 16 16 16 16 17 16 16 16 16 16 17 17 18 20 21 22 24
32 24 24 26 22 22 28 36 46 45 41 44 47 49 45 36 30 28 25 22 18 16 16 14 16 20 24 26 26 26 25 21 21 24 29 34 33 27 26 28 27 26 26 26 28 31 31 27 25 23 20 19 18 15 14 12 10 11 12 13 14 14 15 15 15 15 16 16 16 16 16 17 16 16 16 16 16 16 17 17 18 19 21 22 24 25
32 28 27 29 29 32 35 39 48 50 47 46 45 49 48 36 28 28 25 23 22 19 18 19 20 23 23 23 26 28 28 28 26 26 29 31 29 26 26 28 28 27 27 27 28 30 28 25 23 21 19 19 18 18 17 14 12 12 13 14 14 14 15 15 15 16 16 16 16 16 16 16 16 15 15 15 16 17 18 18 19 21 22 24 25 26
33 32 30 26 24 29 31 33 42 46 46 47 43 43 50 43 28 25 26 24 22 20 18 20 24 27 25 23 23 24 27 29 28 29 29 28 27 27 29 30 29 29 27 27 29 29 25 23 23 21 20 20 21 21 22 18 14 13 14 15 16 17 17 16 15 16 16 16 16 16 16 16 16 16 16 16 16 18 19 20 21 22 24 25 26 27
35 33 30 23 16 19 22 24 34 42 44 45 35 29 45 49 32 24 29 26 22 18 17 18 26 30 27 26 25 23 25 27 28 29 27 26 26 27 29 30 29 28 26 26 27 26 24 23 22 21 22 22 22 24 26 24 18 15 15 16 18 19 18 17 17 17 18 18 17 18 18 18 18 17 17 17 18 19 21 22 23 24 26 26 27 27
36 31 29 25 16 15 18 20 27 36 42 45 34 25 40 51 38 26 28 28 23 20 16 15 22 27 28 29 28 25 26 28 29 29 25 24 26 26 26 27 27 26 24 23 23 24 25 24 23 23 23 23 23 24 26 24 19 17 18 19 21 20 19 18 19 19 19 20 20 21 20 20 20 20 20 20 20 22 23 25 26 27 28 28 28 28
35 31 30 27 21 17 18 20 22 27 36 44 38 30 36 47 45 33 26 25 25 25 24 19 18 19 22 28 29 28 30 30 28 27 24 23 24 24 23 23 24 24 23 23 23 25 27 26 25 25 24 23 22 22 22 21 20 20 21 23 23 22 20 20 21 20 21 21 21 21 21 22 22 23 23 23 23 25 27 28 29 29 30 30 30 30
36 33 30 27 27 27 27 27 23 23 30 35 34 33 35 42 49 45 37 33 31 29 30 29 27 22 19 25 29 28 28 28 25 24 24 23 22 24 25 25 26 25 25 25 26 27 28 27 27 25 24 23 22 21 21 22 22 23 23 24 25 24 23 23 23 23 24 23 21 21 22 24 25 25 25 25 26 28 29 29 30 30 31 31 31 31
37 35 31 29 32 34 31 28 22 18 23 28 33 37 38 39 44 45 46 46 42 36 34 36 37 33 25 25 27 25 24 25 23 22 22 22 23 26 28 29 30 30 28 27 27 27 27 27 26 26 25 24 24 22 22 23 24 23 23 25 25 26 26 26 26 28 27 25 24 23 24 25 25 26 26 27 27 28 29 29 30 31 32 32 32 33
37 37 34 32 34 33 30 28 24 19 20 25 32 36 37 39 42 43 45 47 46 43 40 37 36 36 33 29 27 26 25 24 22 21 21 22 24 27 28 28 29 29 28 27 26 25 25 25 25 26 25 25 24 24 24 24 25 24 24 25 26 27 29 29 29 28 25 24 23 23 23 23 23 24 25 26 27 28 29 30 31 31 31 31 32 33
37 37 33 32 32 29 29 31 30 28 26 25 29 33 34 37 41 43 44 46 46 43 40 36 34 34 36 34 31 29 28 27 25 22 21 22 24 28 29 27 25 26 27 27 26 25 24 23 24 24 25 25 25 26 26 27 26 25 24 26 27 28 29 31 31 29 25 24 24 24 23 22 23 24 25 27 28 29 30 31 31 31 32 32 33 34
38 35 29 29 30 25 26 32 32 31 30 28 29 32 35 37 39 42 43 44 44 41 37 36 35 35 36 35 32 30 29 28 27 24 21 21 25 29 30 28 26 26 27 27 27 25 24 23 23 24 24 24 26 28 28 29 28 26 26 27 27 27 28 29 30 29 27 26 25 25 24 23 23 24 26 27 29 30 30 31 31 32 32 33 34 35
35 33 27 26 28 26 26 29 29 28 27 27 27 30 33 34 37 40 42 42 42 39 36 35 34 34 36 36 35 33 29 26 27 26 22 22 26 28 29 28 28 28 28 28 26 25 25 24 25 24 24 24 25 27 28 28 28 27 28 27 27 27 27 26 26 27 28 27 27 26 25 24 24 25 26 27 29 30 30 31 31 32 32 33 34 35
32 32 28 25 28 30 27 25 26 25 23 24 26 28 29 30 31 33 35 36 38 37 35 34 33 34 37 38 37 35 29 24 25 26 24 24 27 29 28 29 29 30 30 29 27 27 27 27 27 26 25 25 25 26 26 26 27 28 27 27 27 26 25 24 25 26 28 28 27 26 26 26 26 27 27 28 29 31 31 31 31 32 32 33 34 35
31 31 27 23 25 30 28 25 25 23 21 21 23 24 25 26 26 27 27 28 32 33 33 33 33 33 37 40 38 35 31 27 25 25 25 26 27 28 29 29 30 31 30 29 28 29 30 30 29 27 26 26 26 25 24 26 28 28 27 27 28 28 26 25 25 26 27 27 27 27 27 27 28 28 29 30 31 32 31 31 31 32 33 33 34 35
31 32 29 23 22 28 32 30 27 25 22 21 22 22 23 24 26 28 28 29 29 29 29 31 32 33 38 41 38 34 31 30 28 25 25 27 28 28 29 30 30 30 30 29 30 30 30 30 29 27 27 27 26 25 26 27 28 28 28 29 29 29 28 27 27 27 27 28 28 28 28 29 30 30 31 32 33 33 32 31 31 32 33 33 33 35
30 33 33 28 24 28 33 32 28 27 26 23 22 23 24 24 26 28 30 32 32 28 26 27 29 33 39 41 37 32 32 33 32 28 25 26 28 28 29 30 30 31 30 30 31 31 31 31 29 28 27 27 27 27 27 28 29 29 30 30 30 30 29 29 29 29 29 30 30 30 30 30 31 31 32 33 34 33 31 30 31 32 32 32 33 34
31 32 33 32 28 28 31 29 26 27 27 24 24 24 24 24 26 28 30 33 34 31 27 26 28 32 39 40 35 33 35 35 34 29 25 25 28 28 28 29 30 31 32 32 32 32 32 31 30 29 29 28 28 28 28 29 30 31 31 32 31 30 30 30 31 31 31 31 31 31 31 31 31 32 33 33 33 32 31 30 30 31 31 31 33 33
31 33 34 34 31 29 30 30 28 27 26 24 24 24 23 24 27 28 30 31 32 32 31 29 29 32 37 37 34 35 37 35 33 31 28 27 28 28 29 29 30 31 32 33 33 33 32 32 32 31 31 29 29 29 29 30 31 32 33 33 32 31 31 32 32 32 32 32 32 31 31 31 32 32 32 32 31 30 30 30 30 30 30 32 33 31
25 29 30 32 32 30 29 30 31 30 27 24 24 25 24 24 25 27 28 29 30 31 31 31 31 33 36 36 34 34 34 33 33 33 31 29 28 28 28 29 29 30 31 32 33 33 33 33 34 33 32 31 31 31 31 31 32 32 33 32 32 32 33 34 33 33 33 33 32 31 32 32 32 31 30 30 30 30 30 30 29 28 29 31 31 29
21 24 26 27 29 28 27 29 33 35 30 25 23 24 25 23 23 23 25 26 28 29 30 32 34 34 33 31 30 30 31 32 33 32 31 31 29 27 27 28 29 30 30 31 32 32 33 35 35 34 34 33 33 33 33 33 32 33 33 32 33 34 34 33 33 33 33 32 32 32 33 32 31 30 29 29 28 28 28 27 26 26 27 30 30 28
22 23 24 26 28 30 29 31 34 34 31 26 22 22 23 23 23 23 23 24 26 28 29 32 33 33 31 27 26 27 29 31 32 32 31 31 29 28 29 29 29 30 30 31 31 32 33 34 34 33 33 33 33 33 33 33 34 33 33 33 34 34 34 34 33 33 33 33 33 33 33 31 30 28 28 28 28 27 25 24 24 26 27 29 28 27
22 22 23 25 27 29 30 30 30 30 31 29 25 23 24 25 25 25 24 24 25 27 28 30 31 32 31 29 27 26 28 30 30 29 28 29 29 29 30 30 30 31 31 31 32 32 33 33 32 32 33 33 33 33 33 34 34 33 33 34 35 35 35 34 34 34 33 34 34 33 32 30 29 28 28 29 28 28 26 25 27 28 28 27 27 27
20 21 23 23 23 25 28 29 29 29 30 31 28 26 25 25 25 25 25 25 26 27 28 28 29 30 30 28 27 26 28 30 30 27 26 27 29 30 30 30 30 31 32 32 33 33 33 33 32 33 33 32 33 33 34 35 35 34 34 35 35 35 34 34 34 34 34 34 34 32 31 30 29 29 28 28 28 28 27 26 29 31 29 27 27 26
20 21 23 22 21 23 26 28 28 28 29 31 31 29 27 26 25 24 25 25 27 28 28 28 28 29 29 28 27 26 28 30 29 27 27 28 29 30 31 31 31 31 32 33 34 34 33 33 33 34 33 33 33 34 35 36 35 35 35 36 36 35 34 34 34 34 34 34 33 31 30 30 30 28 27 26 26 27 26 27 30 32 29 27 26 25
21 22 23 23 24 25 25 25 27 28 28 29 31 31 30 29 27 25 26 27 27 28 28 28 28 28 28 28 28 27 28 28 28 27 27 28 29 30 31 31 32 32 32 33 34 34 34 34 35 35 35 35 35 36 36 36 35 35 36 36 35 34 34 35 35 34 33 33 32 31 30 30 29 27 26 26 25 25 26 28 30 29 27 25 24 22
22 24 24 24 24 25 25 24 25 27 27 27 28 28 28 29 29 28 28 28 27 27 27 27 27 26 26 27 27 27 28 28 28 27 27 28 29 30 30 31 32 32 33 33 34 35 35 35 35 36 35 35 36 36 36 35 35 36 37 36 35 35 36 36 35 33 32 32 31 31 29 28 26 25 26 26 25 25 27 28 27 25 24 23 21 21
22 23 23 23 23 23 23 22 23 25 26 26 26 26 26 28 30 31 30 29 28 27 27 26 26 26 26 26 27 27 28 28 28 29 28 28 29 29 30 30 31 32 32 34 35 35 36 36 36 36 35 34 34 36 37 36 35 36 36 36 36 36 36 35 33 32 32 31 30 28 26 25 25 25 25 25 25 24 23 22 21 23 23 22 21 21
Wind_Direction
222 223 224 222 222 222 221 223 224 223 222 224 228 232 231 228 231 231 208 224 258 254 234 232 238 242 243 243 244 246 248 249 244 239 239 241 243 240 232 229 232 230 229 230 234 242 244 239 236 235 235 238 241 241 240 241 246 253 255 254 252 249 248 250 251 252 254 257 260 264 267 269 268 267 266 265 258 246 244 260 263 259 264 270 276 284
223 224 224 222 222 223 223 224 223 220 219 218 218 226 233 224 218 231 212 210 254 261 240 228 235 243 246 242 240 244 249 249 247 243 243 245 246 240 233 230 227 225 223 224 230 236 236 237 237 234 233 237 238 237 237 238 239 243 247 247 249 248 247 248 249 251 254 257 260 263 264 265 264 261 260 258 251 247 259 264 260 261 267 273 280 288
222 223 222 222 221 223 224 224 224 218 216 218 211 211 236 227 207 218 209 199 239 253 242 232 234 236 245 247 240 240 245 244 244 244 243 245 244 239 234 232 229 221 218 225 231 229 226 231 235 235 237 238 239 239 241 243 241 243 245 242 242 243 244 246 248 251 254 258 260 262 264 264 260 255 248 244 241 250 265 263 257 263 269 275 282 288
222 222 220 220 219 221 223 222 223 217 213 217 211 202 227 229 207 202 202 207 226 239 237 236 241 235 238 251 245 233 237 239 239 242 244 245 241 234 229 229 231 225 220 230 236 231 229 236 242 242 241 241 244 246 247 247 245 247 249 246 243 243 245 246 247 250 253 257 261 264 264 258 252 246 232 229 249 266 265 260 260 265 271 276 282 289
223 224 222 220 219 219 221 221 220 217 213 215 212 203 203 218 212 196 203 223 229 239 240 233 242 240 227 243 246 231 227 232 235 237 241 245 242 235 229 227 231 232 230 235 240 240 239 243 247 247 243 243 247 249 250 250 249 250 251 251 250 247 246 246 247 249 252 257 261 260 256 246 237 227 222 241 264 267 259 258 263 267 273 278 283 293
221 223 221 220 221 220 221 222 219 215 214 214 214 208 196 197 204 191 210 235 240 249 249 231 228 236 230 238 246 240 232 227 231 237 241 246 245 239 231 225 226 231 234 237 238 240 243 244 245 244 243 244 247 249 250 248 250 254 255 255 254 252 251 249 248 250 252 257 260 257 254 244 231 225 238 259 261 253 252 257 262 268 274 280 288 297
219 220 219 217 220 219 220 222 219 214 213 215 216 212 204 191 179 185 221 240 246 249 247 231 220 224 238 245 246 247 243 230 230 239 244 249 245 233 223 217 220 228 231 232 231 232 239 241 240 238 238 242 248 252 251 246 248 256 262 261 258 255 254 252 250 251 253 256 260 257 251 248 248 242 241 251 246 241 252 258 263 272 278 285 294 301
217 219 217 215 217 217 217 220 218 214 212 215 215 212 212 201 176 184 224 235 245 249 239 223 216 212 231 248 248 247 245 237 236 244 249 252 245 230 218 212 216 226 227 225 225 226 232 237 236 235 236 242 249 252 252 250 250 256 261 263 260 256 254 254 252 250 251 254 255 251 245 250 256 241 212 226 239 243 254 261 269 278 285 293 299 303
215 217 216 212 214 215 214 217 217 213 213 217 215 210 214 211 190 184 214 227 233 244 231 218 218 213 214 234 246 248 249 245 241 246 252 253 247 235 225 219 218 220 222 223 223 224 230 236 236 235 237 242 247 249 250 252 252 253 254 255 257 256 254 256 254 248 245 248 246 242 248 250 237 213 200 233 240 245 258 268 277 284 291 296 300 302
214 216 217 212 212 215 213 215 215 213 214 215 215 212 212 212 201 186 201 226 224 227 224 218 226 225 217 227 246 251 251 249 242 243 249 248 245 238 229 224 220 217 218 222 224 224 229 236 238 237 238 240 243 246 250 250 247 245 247 251 257 258 254 255 253 244 240 243 243 242 245 238 223 219 243 252 245 254 264 272 279 285 292 297 298 299
214 215 215 212 212 215 215 213 212 213 214 208 207 212 211 207 202 192 196 215 219 226 220 208 225 235 227 226 244 255 251 247 244 241 244 246 242 237 229 225 221 216 218 224 227 228 228 231 233 231 233 235 239 245 249 245 237 239 250 258 261 259 255 251 246 241 241 243 247 245 233 226 229 244 256 256 257 263 267 271 278 284 291 295 296 295
212 213 212 212 211 213 216 212 209 213 212 203 200 204 207 206 202 198 196 198 210 227 222 206 217 241 249 236 237 260 261 249 244 240 238 243 240 236 235 232 230 227 227 231 233 234 231 225 224 226 228 231 236 243 244 236 234 245 259 262 261 257 254 250 244 238 240 246 249 241 230 232 245 254 258 258 261 264 267 271 276 282 287 290 289 288
210 213 209 211 211 209 211 207 205 212 207 201 201 197 201 209 205 202 205 211 219 222 214 210 211 217 247 249 226 246 270 260 253 251 244 244 241 238 241 240 238 238 238 236 232 233 231 223 222 225 226 228 231 235 234 233 239 249 254 254 255 253 252 250 244 238 239 243 241 236 238 248 253 256 260 259 260 261 264 268 272 278 281 282 284 285
199 208 205 206 208 208 209 205 206 211 203 200 204 197 196 210 210 207 211 222 227 222 207 211 219 210 218 244 214 207 259 265 255 252 244 241 243 240 241 240 238 238 235 231 222 223 230 227 226 228 227 226 226 226 230 235 241 243 242 247 252 252 252 248 241 239 237 231 230 240 252 257 256 257 258 255 256 257 259 265 269 273 277 280 283 287
188 195 203 208 209 207 208 205 208 212 202 198 205 198 192 203 213 213 214 220 227 227 216 203 221 223 214 228 214 194 242 258 245 245 242 233 235 236 237 236 237 236 232 230 226 229 238 234 228 229 228 225 221 222 230 237 240 240 244 251 252 252 253 247 240 235 229 228 241 258 262 259 257 254 252 249 250 253 257 264 267 272 277 281 286 290
192 193 203 212 211 207 206 201 201 208 201 198 205 203 200 201 210 218 217 219 224 228 225 208 213 229 213 217 220 197 224 244 232 239 244 235 234 237 239 239 238 237 234 234 234 237 241 235 229 230 228 222 218 219 228 236 241 243 246 246 246 248 249 244 235 229 234 247 259 265 264 262 259 252 249 249 249 255 259 264 269 275 281 285 290 294
191 191 200 210 209 205 205 199 196 203 199 199 207 209 209 204 203 227 223 219 223 223 226 220 217 223 212 215 225 210 214 230 227 235 243 239 238 241 243 243 240 238 236 236 237 239 240 232 227 229 225 218 213 213 221 232 238 240 242 243 243 247 247 241 237 240 254 264 265 263 262 260 257 251 249 250 252 258 262 267 274 280 285 289 293 297
194 197 206 212 207 202 202 194 193 204 199 201 211 209 207 202 198 222 229 220 221 219 222 225 223 225 222 221 231 225 224 234 239 243 245 243 245 246 244 241 240 240 238 236 236 236 237 232 228 228 224 218 216 216 223 233 239 239 241 243 246 251 250 244 247 256 266 267 262 259 257 254 251 248 249 252 256 262 267 273 279 283 288 292 295 300
196 194 206 212 205 201 199 188 184 202 201 202 213 209 203 202 198 203 213 215 218 217 219 221 223 229 224 220 237 238 231 236 243 245 243 243 244 243 242 240 243 248 246 242 237 234 236 234 232 231 227 222 219 221 229 237 241 242 245 250 254 256 253 251 258 266 266 260 255 253 252 249 249 250 252 257 261 267 272 277 282 285 289 293 297 303
195 189 203 211 204 199 196 191 190 201 199 194 207 211 204 203 202 201 206 215 218 218 219 216 218 227 217 209 231 236 227 230 238 243 245 246 244 243 247 248 247 252 249 243 237 234 234 231 231 234 231 225 221 223 230 236 238 246 255 260 259 255 253 255 261 263 258 254 253 253 253 252 252 254 258 262 267 271 276 279 283 287 291 296 300 305
187 186 196 202 201 200 200 201 200 202 199 190 195 206 205 203 202 201 205 212 217 219 218 215 215 223 217 212 225 233 236 237 238 245 251 249 246 246 250 250 249 250 245 239 235 233 231 226 228 234 232 226 224 223 227 233 241 255 263 262 257 253 253 253 255 255 254 254 254 255 257 256 256 257 260 264 268 272 277 282 286 290 294 300 304 308
178 185 195 198 203 205 204 204 201 200 204 200 195 198 203 204 199 199 203 203 210 217 216 216 214 215 233 239 232 230 244 246 239 244 251 249 245 243 245 248 248 244 237 233 232 229 226 224 228 233 232 229 226 222 225 236 246 255 259 256 254 254 255 253 253 254 253 254 255 256 257 257 257 258 261 264 269 275 279 283 288 293 299 303 306 309
175 189 205 207 211 207 201 201 200 200 206 206 203 199 202 203 197 200 206 201 203 211 210 216 213 204 222 237 227 219 234 242 235 237 245 249 247 242 243 246 245 239 233 231 230 224 219 221 226 229 230 231 229 225 231 240 242 247 253 256 259 259 258 256 254 252 252 253 255 255 256 257 257 260 263 268 272 277 281 285 292 297 301 304 306 308
178 196 207 203 204 203 201 201 200 202 206 207 207 206 204 202 199 203 205 199 199 201 200 215 216 210 216 223 225 229 236 241 238 236 239 245 245 242 243 245 244 242 237 235 234 226 218 217 222 226 229 233 234 236 243 239 232 247 258 261 261 261 260 256 251 249 250 252 252 253 254 255 258 262 266 271 275 280 286 292 298 300 302 304 305 307
178 190 198 191 185 188 195 199 198 201 207 207 207 211 206 198 206 214 202 196 204 199 197 209 221 228 228 226 230 238 244 245 242 240 240 241 242 244 245 245 244 241 238 239 238 227 216 213 217 223 228 231 234 239 240 231 231 248 256 260 262 259 256 253 250 249 249 250 251 253 255 257 261 264 268 274 280 286 292 296 299 300 301 303 304 306
183 190 193 194 198 200 201 202 201 202 206 204 205 212 207 194 204 216 203 201 212 210 199 198 216 237 237 228 230 235 241 243 240 240 241 241 241 241 241 241 239 235 235 238 231 218 211 210 212 217 221 223 228 230 225 221 232 243 248 259 262 253 248 249 250 251 250 251 253 254 257 259 262 266 270 276 282 287 291 295 297 299 300 301 303 304
190 196 199 199 208 210 203 204 205 203 205 204 202 210 209 197 196 207 202 198 203 213 212 198 210 231 234 226 226 228 231 234 237 238 239 243 243 238 237 237 233 231 231 228 218 210 208 209 210 213 215 218 225 224 218 220 237 248 250 259 261 252 248 248 249 251 251 253 254 254 256 258 260 264 269 275 281 287 291 294 296 298 298 299 300 300
190 196 196 186 192 206 197 198 207 206 206 205 200 204 206 200 196 206 212 202 187 201 222 213 213 223 226 224 221 221 226 229 233 237 236 241 243 237 236 236 233 231 226 215 210 210 210 210 209 211 212 217 222 220 219 227 243 254 256 261 262 256 253 251 252 254 255 255 256 256 257 258 259 264 270 276 282 286 290 293 295 296 297 297 298 298
192 194 190 175 172 198 194 194 207 209 207 206 202 203 206 203 198 203 215 213 198 193 200 215 225 225 228 229 223 225 233 234 237 243 243 244 241 234 234 235 234 233 228 218 216 215 213 210 208 210 213 217 218 217 222 231 243 253 259 263 264 261 258 256 257 259 258 256 257 258 258 258 262 267 271 276 281 285 288 291 292 294 295 296 297 296
191 190 189 177 163 170 182 193 208 211 207 206 207 209 209 208 206 204 207 212 211 201 192 202 225 226 229 235 230 229 237 240 244 248 247 245 239 230 228 228 225 225 226 226 224 220 217 214 210 211 214 216 216 218 225 232 240 250 257 260 261 262 261 259 259 261 257 253 252 254 256 260 265 269 272 277 282 285 287 289 291 293 294 294 295 294
188 185 183 178 167 167 180 193 203 211 208 204 207 210 210 213 214 214 215 218 220 215 206 212 227 231 231 234 231 231 238 244 248 248 244 240 231 223 220 218 215 214 217 222 223 222 221 216 211 211 214 217 221 225 230 234 239 247 253 257 259 262 262 259 257 257 254 249 249 254 259 265 269 272 275 279 283 285 286 288 290 291 292 293 293 292
190 187 178 179 180 177 182 189 192 206 213 210 211 214 216 217 217 218 222 226 229 227 219 218 226 231 232 233 231 230 234 242 248 250 246 239 229 220 213 209 209 210 212 215 218 220 217 212 210 212 216 221 226 230 233 236 240 246 252 258 262 264 265 264 259 256 254 253 254 258 263 268 271 274 278 281 283 285 286 288 289 290 290 291 291 291
193 195 186 185 187 182 184 190 187 187 201 210 214 215 217 219 219 220 223 227 230 230 227 224 226 230 234 237 236 233 232 236 241 243 238 232 227 222 213 206 205 208 210 211 211 213 211 208 209 214 219 225 230 233 235 237 241 247 253 260 265 267 270 269 264 262 261 258 258 262 267 272 276 279 282 283 282 283 285 287 288 288 288 289 289 289
194 199 193 189 187 183 187 193 189 185 191 203 211 214 215 216 218 222 225 227 229 229 228 229 229 232 236 239 238 235 233 234 237 237 232 225 223 222 220 215 210 210 212 212 211 211 209 208 213 220 225 230 233 235 235 237 243 250 257 263 267 271 273 271 267 267 268 264 263 267 270 276 282 285 284 282 281 282 284 285 287 286 286 286 286 285
194 196 194 191 189 185 190 194 196 199 202 206 211 215 217 216 217 221 226 230 231 230 228 228 229 232 236 238 236 234 233 231 233 236 235 227 221 219 220 219 215 214 216 217 217 216 214 213 217 223 228 232 236 238 239 241 244 250 258 264 269 274 275 272 267 266 266 267 269 271 273 279 286 286 283 281 281 281 282 284 285 284 283 283 282 282
195 195 192 191 191 189 192 196 202 209 212 211 212 214 217 218 219 222 226 230 232 230 227 227 227 230 236 239 237 234 233 232 232 233 232 227 222 219 219 219 219 219 220 220 220 219 219 219 221 225 228 231 234 238 239 241 244 249 256 264 271 275 274 271 267 264 265 270 273 274 278 284 288 285 283 283 282 283 283 284 284 283 281 280 280 281
193 195 195 194 194 195 195 199 205 210 212 214 213 213 214 215 219 223 226 230 233 232 229 227 227 229 235 238 237 235 234 234 231 227 225 225 224 222 220 220 221 222 223 223 222 220 220 222 225 227 229 230 233 235 237 239 243 248 255 262 268 270 269 269 268 266 267 270 272 275 281 287 288 287 287 286 285 285 285 284 283 282 280 280 280 281
189 191 194 195 197 199 200 202 208 211 213 215 215 215 214 213 216 221 225 229 232 232 230 227 225 228 234 238 238 237 238 237 235 229 225 226 226 223 220 220 221 223 225 225 224 224 224 225 227 230 232 233 234 235 235 239 243 248 254 259 263 264 265 267 267 266 267 268 272 277 283 287 288 288 287 286 285 285 285 284 282 280 279 279 279 281
192 192 194 191 194 202 203 205 212 217 218 217 215 216 217 216 217 221 224 228 230 230 228 225 223 226 233 237 237 238 240 240 237 230 223 221 222 222 221 221 220 222 224 225 224 225 226 227 229 233 237 238 238 237 237 241 245 249 253 257 259 261 263 265 265 264 266 269 273 279 283 285 286 286 285 285 284 284 284 282 280 279 279 279 280 281
194 199 201 198 196 202 203 204 212 220 220 217 214 215 217 217 219 221 223 225 227 226 224 222 219 223 231 236 236 237 239 239 237 232 224 221 221 221 222 222 221 221 223 225 226 227 228 229 232 236 239 241 240 239 240 243 246 250 253 256 258 260 262 262 262 263 266 269 274 278 281 282 283 284 283 283 283 283 283 281 279 278 280 280 280 280
193 199 203 203 204 207 204 202 209 218 219 216 216 216 217 218 220 221 221 222 223 223 223 222 219 222 230 234 234 234 236 238 239 236 231 226 225 223 223 224 223 223 224 226 228 230 231 232 233 235 238 239 239 240 241 243 246 250 253 256 257 258 258 258 260 262 265 269 274 278 280 282 283 283 283 283 283 282 281 280 279 279 280 280 280 279
197 198 200 202 204 208 207 206 211 217 217 216 216 217 217 218 219 219 220 220 220 221 222 222 221 225 230 231 230 231 233 236 237 236 233 230 228 226 225 225 225 225 226 227 229 231 233 234 235 237 237 238 239 241 242 244 247 249 251 253 253 254 255 257 260 263 267 271 275 279 281 282 282 282 283 283 283 282 281 281 280 281 280 279 279 279
202 202 203 203 205 206 206 207 212 216 214 214 216 216 217 220 220 220 221 221 220 220 221 220 221 225 229 228 228 229 230 232 234 233 231 230 229 226 226 227 227 228 228 227 228 231 233 236 238 238 238 238 239 240 241 243 245 247 249 250 250 252 254 257 260 265 269 272 276 279 280 281 281 282 282 281 281 282 281 280 280 280 281 280 279 278
204 206 208 208 209 210 210 209 212 214 213 214 217 219 222 225 225 223 222 222 222 222 222 222 224 228 231 229 226 226 227 229 232 232 230 229 229 228 227 228 229 230 229 229 229 230 232 235 237 238 238 239 239 239 240 241 242 244 246 247 249 252 255 258 263 267 271 274 278 279 279 280 281 280 279 277 278 279 280 279 278 278 281 282 280 277
202 203 206 208 209 211 213 213 213 214 214 216 219 221 222 224 224 222 220 220 221 221 222 223 225 229 234 232 227 225 227 229 231 230 229 230 231 232 231 231 230 231 231 232 231 231 232 235 237 237 239 239 239 238 239 239 240 242 244 246 250 253 257 261 265 269 273 276 278 278 279 281 280 279 277 274 273 274 277 278 278 279 282 282 279 274
205 202 203 207 209 209 212 216 216 214 215 217 218 221 222 221 221 220 218 218 219 220 222 224 226 228 232 234 231 229 231 232 231 229 229 230 231 233 233 233 232 232 233 233 233 234 234 236 236 237 238 239 238 238 238 238 241 242 244 247 251 254 258 262 266 270 274 277 278 279 281 281 280 277 276 274 272 272 275 278 279 279 280 279 274 270
204 202 204 208 210 208 211 215 217 217 218 219 220 223 225 225 224 222 219 217 217 218 220 223 226 229 232 233 231 230 232 234 234 232 231 231 232 233 234 234 234 234 234 235 235 236 236 237 237 238 239 239 239 239 238 239 241 244 245 248 252 255 259 263 267 271 275 276 277 279 281 281 279 276 276 278 276 274 274 276 278 277 275 272 269 267
199 202 204 206 208 210 211 214 217 220 220 220 222 226 229 229 229 228 226 224 222 220 220 222 225 227 230 232 231 229 232 235 235 233 232 232 233 235 236 236 235 235 234 236 237 237 238 238 239 240 240 240 239 239 239 239 241 244 246 249 252 256 259 263 268 272 274 275 277 279 280 279 277 277 279 281 277 271 270 272 275 275 270 265 264 268
199 202 201 203 207 210 209 211 217 222 223 222 223 227 230 231 231 231 230 230 230 228 226 225 226 227 229 232 233 232 233 236 236 234 231 231 233 237 238 239 239 238 237 237 238 238 239 238 239 241 241 240 238 237 237 239 241 244 246 250 253 256 260 265 269 271 273 275 277 278 278 278 277 277 279 278 274 271 271 273 274 271 264 260 263 272
203 205 205 205 207 208 208 212 219 224 226 226 227 229 232 234 235 235 234 233 233 233 232 231 231 231 231 234 236 235 234 236 237 237 235 233 235 238 240 241 242 241 241 240 240 240 240 240 242 243 242 242 241 239 238 238 240 243 247 250 253 257 261 265 268 270 272 274 276 277 278 277 276 274 273 272 272 273 275 275 271 264 258 259 267 277
208 210 211 212 210 209 211 218 225 228 230 232 232 232 231 233 235 237 237 237 235 234 234 234 235 235 234 234 236 237 237 237 238 239 239 238 239 240 242 243 243 243 242 242 242 242 242 242 243 244 243 243 241 238 237 237 239 243 247 250 253 257 261 264 267 269 271 272 273 276 276 274 270 269 269 270 271 272 274 272 264 255 255 263 273 280
Height
5703 5705 5708 5713 5718 5722 5727 5730 5734 5740 5745 5748 5751 5754 5756 5759 5763 5766 5771 5771 5766 5768 5773 5774 5776 5774 5774 5778 5779 5780 5782 5783 5785 5786 5784 5780 5783 5789 5792 5795 5796 5796 5798 5800 5802 5804 5807 5810 5812 5813 5814 5815 5817 5819 5818 5819 5821 5823 5823 5823 5824 5825 5827 5828 5829 5830 5830 5831 5832 5832 5832 5833 5833 5834 5835 5835 5835 5836 5835 5831 5830 5831 5832 5833 5834 5833
5698 5700 5705 5711 5717 5721 5725 5728 5732 5738 5742 5745 5749 5752 5754 5757 5762 5765 5768 5772 5767 5764 5770 5772 5773 5773 5772 5775 5778 5778 5780 5782 5783 5783 5780 5779 5784 5790 5792 5793 5794 5796 5797 5798 5800 5802 5805 5807 5808 5810 5811 5812 5813 5813 5813 5815 5818 5819 5820 5821 5823 5825 5826 5826 5827 5828 5828 5829 5830 5830 5830 5831 5831 5832 5832 5833 5834 5834 5831 5829 5829 5830 5831 5832 5832 5832
5692 5696 5702 5708 5714 5718 5722 5726 5730 5735 5740 5742 5746 5751 5752 5755 5761 5764 5767 5773 5768 5762 5767 5770 5770 5773 5772 5771 5775 5778 5778 5779 5780 5779 5778 5778 5783 5789 5792 5793 5794 5797 5797 5796 5797 5800 5802 5802 5803 5806 5808 5810 5812 5812 5813 5814 5816 5817 5818 5820 5822 5823 5824 5824 5825 5826 5827 5827 5827 5828 5828 5828 5829 5829 5830 5831 5831 5830 5828 5828 5829 5830 5830 5831 5831 5831
5688 5693 5700 5705 5710 5714 5717 5722 5726 5732 5737 5738 5742 5747 5751 5754 5758 5762 5767 5770 5765 5760 5764 5769 5768 5772 5772 5766 5769 5776 5776 5776 5777 5776 5776 5776 5779 5784 5788 5790 5792 5794 5793 5793 5795 5798 5801 5801 5800 5802 5806 5810 5811 5812 5813 5814 5815 5817 5817 5818 5820 5821 5822 5823 5823 5824 5825 5825 5825 5825 5825 5826 5827 5827 5828 5829 5829 5828 5827 5828 5828 5829 5830 5830 5830 5830
5687 5692 5698 5702 5707 5711 5714 5718 5723 5729 5733 5735 5739 5743 5748 5753 5755 5761 5766 5764 5761 5759 5762 5768 5768 5769 5770 5763 5763 5772 5775 5775 5775 5775 5774 5774 5776 5781 5784 5786 5788 5789 5789 5791 5794 5797 5799 5799 5799 5801 5805 5807 5808 5810 5812 5813 5815 5815 5816 5816 5817 5818 5819 5820 5821 5822 5822 5822 5823 5822 5822 5824 5824 5824 5825 5826 5827 5826 5827 5827 5828 5829 5829 5829 5829 5829
5684 5689 5695 5700 5704 5708 5712 5715 5720 5727 5730 5732 5735 5739 5745 5752 5755 5760 5762 5759 5759 5759 5760 5766 5767 5766 5767 5762 5762 5768 5771 5773 5773 5773 5773 5773 5775 5779 5782 5783 5784 5786 5788 5790 5793 5795 5796 5796 5798 5800 5803 5805 5806 5807 5810 5812 5813 5813 5814 5815 5815 5816 5817 5818 5819 5819 5820 5820 5821 5820 5820 5822 5822 5822 5823 5824 5825 5825 5826 5827 5828 5828 5828 5828 5828 5827
5680 5685 5691 5697 5700 5705 5709 5712 5718 5724 5727 5728 5732 5738 5743 5748 5754 5760 5760 5756 5756 5757 5758 5762 5764 5765 5766 5762 5761 5764 5767 5770 5772 5772 5771 5771 5773 5776 5778 5781 5783 5784 5786 5788 5791 5793 5794 5794 5795 5798 5801 5803 5804 5804 5806 5809 5810 5811 5813 5813 5813 5814 5815 5817 5817 5817 5818 5819 5820 5820 5821 5821 5821 5821 5822 5822 5823 5824 5825 5826 5827 5827 5827 5827 5826 5826
5676 5681 5686 5692 5696 5701 5705 5709 5714 5721 5724 5725 5729 5737 5741 5743 5750 5756 5758 5757 5754 5754 5756 5759 5760 5765 5766 5762 5760 5762 5764 5768 5770 5770 5771 5770 5770 5774 5777 5778 5779 5781 5782 5785 5787 5790 5791 5792 5793 5796 5799 5801 5802 5803 5804 5805 5807 5809 5811 5811 5812 5812 5814 5815 5815 5816 5817 5818 5819 5820 5821 5820 5820 5820 5822 5821 5821 5822 5824 5825 5826 5826 5826 5825 5825 5824
5673 5677 5682 5689 5693 5696 5701 5705 5711 5718 5721 5723 5729 5736 5739 5742 5745 5749 5754 5755 5754 5753 5754 5757 5758 5761 5764 5760 5758 5760 5762 5765 5768 5768 5768 5768 5768 5771 5774 5774 5775 5777 5778 5781 5783 5786 5789 5789 5792 5795 5797 5799 5800 5801 5801 5802 5804 5806 5807 5808 5808 5810 5812 5813 5814 5815 5816 5817 5818 5819 5820 5819 5818 5819 5820 5820 5820 5822 5824 5824 5825 5825 5824 5824 5824 5823
5669 5674 5680 5686 5691 5694 5698 5703 5708 5714 5718 5723 5730 5733 5736 5741 5744 5745 5749 5752 5752 5750 5750 5755 5757 5757 5761 5759 5755 5757 5761 5763 5765 5766 5766 5767 5768 5769 5771 5772 5774 5775 5774 5775 5778 5782 5785 5788 5791 5793 5794 5796 5797 5798 5800 5801 5802 5804 5804 5805 5806 5808 5810 5811 5812 5814 5815 5815 5816 5817 5818 5818 5818 5818 5818 5817 5819 5821 5822 5823 5823 5823 5823 5823 5823 5822
5667 5672 5677 5683 5689 5693 5696 5701 5707 5711 5716 5723 5728 5730 5733 5739 5742 5742 5744 5748 5749 5746 5747 5752 5755 5755 5758 5759 5754 5754 5759 5761 5763 5764 5765 5767 5770 5770 5770 5772 5775 5775 5773 5773 5775 5779 5783 5787 5790 5791 5792 5793 5795 5796 5797 5799 5800 5802 5802 5803 5805 5806 5808 5810 5811 5812 5812 5813 5814 5815 5816 5816 5817 5818 5816 5816 5818 5820 5821 5822 5822 5822 5822 5822 5821 5821
5664 5668 5675 5681 5686 5690 5693 5700 5706 5707 5713 5721 5724 5727 5731 5734 5737 5738 5739 5742 5743 5743 5745 5751 5754 5755 5756 5758 5758 5756 5755 5757 5759 5761 5765 5768 5769 5771 5770 5771 5772 5773 5773 5774 5776 5779 5783 5786 5788 5790 5791 5792 5793 5794 5795 5796 5798 5799 5800 5801 5803 5805 5806 5808 5809 5810 5810 5811 5812 5813 5813 5814 5815 5816 5816 5816 5817 5819 5819 5820 5820 5821 5821 5820 5820 5819
5661 5665 5673 5678 5681 5686 5690 5696 5701 5703 5709 5717 5719 5723 5727 5728 5731 5734 5734 5735 5738 5741 5745 5749 5753 5756 5755 5755 5759 5759 5754 5753 5755 5757 5762 5766 5767 5767 5768 5768 5770 5770 5772 5775 5777 5780 5783 5786 5787 5788 5790 5790 5791 5792 5793 5795 5796 5797 5798 5799 5801 5803 5804 5806 5807 5807 5808 5809 5811 5812 5812 5813 5814 5815 5815 5815 5816 5817 5818 5818 5819 5819 5819 5819 5818 5817
5659 5665 5670 5672 5675 5680 5686 5692 5695 5697 5706 5712 5713 5718 5723 5723 5725 5728 5730 5731 5735 5740 5744 5749 5750 5751 5753 5754 5758 5760 5755 5752 5753 5754 5758 5763 5763 5764 5765 5767 5768 5770 5772 5774 5776 5779 5782 5784 5786 5787 5788 5788 5790 5791 5792 5794 5795 5796 5797 5798 5800 5802 5803 5804 5805 5806 5807 5808 5809 5810 5811 5812 5813 5813 5813 5814 5815 5816 5817 5817 5817 5818 5817 5817 5816 5815
5656 5661 5663 5665 5670 5677 5684 5690 5693 5696 5705 5709 5709 5714 5720 5722 5722 5725 5728 5731 5735 5738 5742 5746 5747 5746 5750 5754 5755 5758 5756 5752 5753 5753 5755 5760 5761 5761 5763 5765 5767 5769 5771 5773 5775 5778 5780 5783 5784 5784 5785 5786 5788 5790 5791 5793 5794 5795 5797 5798 5800 5801 5802 5803 5805 5806 5807 5807 5808 5809 5810 5811 5812 5812 5812 5813 5814 5815 5815 5815 5816 5816 5815 5815 5814 5813
5656 5662 5662 5662 5668 5677 5682 5687 5692 5696 5703 5707 5707 5710 5715 5719 5723 5725 5728 5731 5734 5737 5739 5742 5743 5744 5748 5752 5753 5757 5756 5752 5752 5752 5753 5758 5760 5761 5762 5765 5767 5769 5770 5773 5775 5777 5779 5781 5782 5782 5783 5785 5786 5788 5790 5791 5792 5794 5796 5798 5799 5800 5801 5803 5804 5805 5806 5806 5806 5807 5808 5809 5810 5810 5810 5811 5812 5813 5813 5813 5813 5813 5813 5813 5812 5811
5655 5660 5660 5660 5668 5675 5679 5685 5690 5693 5700 5703 5703 5707 5713 5719 5724 5725 5726 5730 5732 5734 5736 5738 5741 5743 5747 5749 5749 5752 5752 5749 5750 5751 5750 5754 5758 5760 5763 5765 5766 5768 5770 5772 5774 5776 5778 5779 5780 5780 5781 5783 5784 5786 5788 5789 5791 5792 5795 5797 5798 5799 5800 5801 5803 5804 5804 5804 5804 5805 5807 5808 5808 5808 5809 5810 5810 5811 5811 5811 5811 5811 5811 5810 5809 5809
5652 5656 5656 5659 5668 5673 5677 5684 5689 5692 5697 5699 5699 5706 5714 5718 5722 5724 5725 5727 5729 5731 5733 5736 5739 5741 5744 5747 5746 5747 5749 5747 5749 5750 5748 5751 5756 5758 5761 5763 5764 5766 5768 5771 5773 5774 5775 5776 5777 5779 5781 5782 5783 5784 5786 5788 5790 5792 5794 5796 5797 5798 5799 5800 5800 5801 5802 5802 5803 5804 5805 5805 5806 5806 5807 5808 5808 5809 5809 5809 5809 5809 5809 5808 5807 5806
5651 5655 5656 5660 5667 5671 5675 5682 5687 5690 5693 5696 5700 5706 5712 5715 5717 5721 5722 5723 5725 5728 5730 5734 5737 5738 5742 5746 5745 5745 5746 5746 5748 5749 5748 5749 5754 5756 5758 5760 5762 5764 5767 5770 5772 5772 5772 5773 5775 5776 5778 5780 5782 5784 5786 5787 5789 5791 5792 5794 5795 5796 5797 5798 5798 5799 5800 5801 5801 5802 5803 5803 5803 5804 5805 5806 5806 5807 5807 5808 5808 5807 5807 5806 5805 5804
5650 5654 5655 5659 5664 5668 5672 5677 5682 5685 5689 5694 5700 5704 5708 5711 5714 5718 5720 5721 5724 5726 5728 5732 5735 5736 5740 5745 5744 5742 5743 5745 5746 5748 5748 5749 5752 5755 5757 5759 5761 5763 5765 5768 5769 5769 5770 5771 5773 5773 5775 5777 5780 5783 5784 5786 5788 5789 5790 5791 5792 5794 5795 5796 5797 5798 5799 5799 5800 5800 5800 5801 5801 5802 5803 5804 5805 5805 5806 5806 5806 5805 5805 5804 5803 5802
5649 5653 5654 5657 5661 5664 5668 5673 5677 5681 5685 5690 5695 5699 5704 5708 5711 5716 5719 5721 5723 5724 5726 5730 5732 5734 5737 5740 5741 5741 5741 5744 5745 5745 5746 5748 5750 5753 5755 5758 5760 5762 5764 5765 5766 5766 5767 5769 5770 5769 5770 5774 5779 5782 5783 5785 5787 5788 5788 5789 5790 5791 5793 5794 5795 5796 5797 5797 5797 5798 5798 5799 5800 5800 5801 5802 5803 5804 5804 5804 5804 5803 5802 5802 5801 5800
5647 5650 5652 5654 5657 5662 5666 5672 5677 5681 5684 5688 5691 5697 5701 5704 5709 5714 5717 5720 5722 5722 5724 5727 5730 5734 5735 5735 5738 5740 5739 5741 5744 5743 5742 5744 5748 5751 5753 5756 5759 5760 5763 5764 5764 5765 5765 5766 5767 5767 5769 5773 5777 5780 5782 5784 5786 5787 5787 5787 5788 5789 5791 5792 5793 5794 5794 5794 5795 5796 5797 5797 5798 5799 5800 5801 5801 5802 5802 5802 5801 5801 5800 5799 5799 5798
5646 5648 5649 5652 5657 5662 5666 5671 5676 5680 5684 5687 5691 5696 5699 5703 5708 5711 5714 5717 5720 5721 5724 5726 5729 5733 5733 5733 5736 5738 5738 5739 5741 5742 5740 5740 5744 5748 5750 5753 5755 5757 5760 5761 5762 5762 5763 5764 5764 5765 5767 5770 5773 5777 5779 5781 5782 5783 5784 5785 5786 5787 5788 5789 5790 5791 5791 5792 5793 5794 5795 5796 5797 5798 5799 5799 5800 5800 5800 5799 5799 5798 5798 5797 5797 5796
5644 5645 5648 5652 5658 5662 5666 5670 5674 5678 5682 5685 5690 5694 5697 5701 5706 5709 5712 5715 5718 5720 5723 5725 5727 5729 5729 5730 5733 5735 5736 5738 5739 5740 5738 5737 5740 5744 5747 5749 5751 5754 5756 5758 5758 5759 5760 5761 5761 5762 5764 5766 5769 5771 5773 5775 5777 5779 5781 5782 5783 5784 5785 5786 5787 5788 5789 5790 5791 5793 5794 5795 5796 5796 5797 5797 5797 5798 5797 5797 5797 5796 5796 5795 5795 5794
5641 5644 5646 5650 5655 5659 5662 5666 5670 5673 5677 5682 5687 5690 5695 5701 5706 5707 5710 5713 5715 5718 5722 5725 5726 5726 5726 5729 5731 5732 5734 5736 5738 5738 5736 5734 5738 5743 5745 5746 5748 5750 5753 5754 5755 5757 5758 5759 5760 5761 5763 5764 5765 5767 5770 5772 5774 5776 5778 5779 5781 5782 5783 5784 5785 5786 5787 5789 5790 5792 5793 5793 5794 5795 5795 5795 5795 5795 5795 5795 5795 5794 5794 5793 5792 5792
5640 5642 5643 5647 5651 5653 5656 5660 5663 5668 5673 5679 5684 5687 5692 5700 5704 5705 5707 5710 5712 5715 5719 5723 5725 5724 5725 5727 5729 5730 5732 5733 5734 5734 5733 5733 5737 5742 5743 5744 5746 5748 5751 5752 5753 5756 5757 5757 5759 5761 5762 5763 5764 5767 5769 5771 5773 5775 5776 5778 5780 5781 5782 5783 5784 5785 5787 5788 5789 5790 5791 5792 5792 5793 5793 5793 5793 5793 5793 5793 5792 5792 5791 5791 5790 5789
5640 5642 5644 5649 5652 5655 5659 5662 5664 5669 5673 5677 5681 5685 5690 5697 5701 5703 5704 5706 5711 5714 5716 5720 5721 5721 5722 5725 5726 5728 5729 5729 5729 5730 5732 5732 5735 5738 5739 5741 5744 5746 5749 5751 5752 5753 5754 5755 5757 5759 5761 5762 5764 5767 5769 5770 5772 5774 5776 5778 5779 5780 5781 5782 5783 5784 5786 5787 5788 5789 5790 5790 5790 5791 5791 5791 5791 5791 5790 5790 5790 5790 5789 5788 5787 5786
5638 5641 5644 5650 5655 5658 5661 5664 5666 5669 5673 5677 5681 5683 5687 5693 5697 5699 5700 5703 5708 5712 5714 5717 5717 5717 5719 5722 5724 5726 5727 5727 5726 5727 5729 5730 5731 5734 5736 5737 5740 5743 5747 5748 5749 5750 5751 5753 5756 5758 5759 5761 5763 5766 5768 5770 5773 5775 5776 5777 5778 5779 5781 5781 5782 5783 5784 5785 5786 5787 5788 5788 5788 5789 5789 5788 5788 5788 5788 5787 5787 5787 5786 5785 5784 5783
5636 5641 5645 5650 5655 5660 5663 5665 5666 5668 5672 5676 5679 5681 5685 5689 5693 5696 5699 5701 5705 5708 5712 5715 5715 5715 5717 5719 5722 5725 5725 5725 5725 5726 5728 5729 5729 5731 5732 5734 5737 5740 5743 5744 5744 5746 5749 5751 5754 5756 5758 5760 5763 5765 5768 5770 5773 5774 5775 5776 5777 5778 5779 5780 5781 5782 5783 5783 5784 5785 5786 5786 5786 5786 5786 5786 5786 5785 5785 5785 5784 5784 5783 5782 5781 5780
5637 5641 5645 5649 5654 5660 5665 5667 5667 5667 5670 5674 5677 5680 5683 5686 5689 5693 5697 5699 5701 5704 5709 5712 5712 5713 5715 5716 5719 5721 5722 5723 5724 5726 5727 5729 5730 5731 5733 5734 5735 5736 5738 5740 5742 5745 5748 5750 5752 5754 5756 5759 5762 5765 5768 5770 5772 5773 5773 5774 5775 5776 5778 5778 5779 5780 5781 5781 5782 5783 5783 5784 5784 5784 5783 5783 5783 5783 5782 5782 5781 5781 5780 5779 5778 5777
5636 5640 5644 5649 5652 5656 5660 5663 5664 5665 5668 5672 5675 5678 5681 5684 5687 5690 5693 5696 5698 5701 5706 5708 5709 5711 5713 5714 5715 5718 5719 5720 5722 5723 5725 5728 5730 5732 5733 5734 5735 5735 5737 5739 5741 5744 5747 5750 5752 5754 5756 5759 5761 5764 5766 5768 5770 5771 5772 5772 5773 5774 5775 5776 5777 5778 5778 5779 5780 5780 5781 5781 5781 5781 5781 5781 5781 5780 5779 5779 5778 5777 5776 5776 5775 5774
5636 5638 5642 5646 5649 5652 5656 5659 5662 5665 5668 5670 5672 5675 5678 5682 5685 5688 5691 5692 5695 5699 5703 5705 5707 5709 5711 5711 5712 5715 5718 5718 5718 5720 5722 5725 5728 5730 5731 5732 5733 5735 5737 5739 5741 5744 5747 5749 5751 5753 5755 5758 5760 5762 5764 5766 5768 5769 5770 5770 5771 5772 5773 5774 5775 5775 5775 5777 5778 5778 5778 5778 5778 5778 5778 5778 5778 5777 5776 5775 5775 5774 5773 5772 5772 5771
5635 5637 5640 5644 5647 5651 5654 5657 5660 5663 5666 5668 5670 5673 5676 5680 5683 5686 5688 5690 5693 5696 5700 5703 5706 5707 5708 5709 5711 5714 5716 5716 5717 5718 5718 5720 5723 5726 5729 5730 5730 5733 5736 5738 5741 5743 5745 5748 5750 5752 5754 5756 5758 5760 5762 5764 5765 5767 5767 5768 5769 5769 5770 5771 5772 5772 5773 5774 5775 5775 5775 5776 5776 5776 5776 5775 5774 5774 5773 5773 5772 5771 5770 5769 5768 5767
5633 5636 5640 5643 5647 5650 5653 5655 5657 5660 5663 5665 5668 5671 5674 5677 5681 5683 5686 5687 5690 5694 5698 5703 5705 5705 5706 5707 5709 5712 5713 5714 5715 5716 5716 5718 5719 5721 5725 5727 5728 5731 5734 5737 5739 5741 5743 5746 5748 5750 5752 5754 5756 5758 5760 5761 5763 5764 5765 5765 5766 5767 5767 5768 5768 5769 5771 5772 5772 5772 5773 5773 5773 5773 5773 5772 5771 5771 5770 5769 5768 5768 5767 5766 5765 5764
5632 5636 5640 5643 5647 5650 5652 5654 5656 5658 5660 5663 5665 5668 5671 5674 5678 5681 5683 5685 5688 5692 5697 5700 5703 5703 5703 5704 5707 5709 5711 5712 5713 5715 5716 5718 5719 5719 5722 5724 5727 5730 5732 5735 5737 5740 5742 5744 5746 5748 5750 5752 5754 5756 5757 5759 5760 5761 5762 5763 5763 5764 5765 5765 5765 5766 5767 5768 5769 5769 5769 5770 5770 5770 5770 5769 5768 5767 5767 5766 5765 5764 5764 5763 5762 5760
5632 5636 5640 5642 5645 5648 5650 5653 5656 5657 5660 5662 5665 5667 5669 5673 5676 5678 5681 5683 5685 5690 5694 5697 5700 5702 5701 5701 5703 5706 5708 5711 5712 5714 5716 5717 5718 5719 5721 5723 5726 5728 5730 5733 5735 5738 5740 5742 5743 5745 5747 5749 5751 5753 5755 5756 5757 5758 5759 5760 5761 5762 5762 5762 5763 5763 5764 5765 5765 5765 5766 5767 5767 5766 5766 5765 5765 5764 5763 5762 5762 5761 5760 5759 5758 5757
5633 5637 5640 5642 5645 5647 5650 5653 5654 5656 5659 5661 5663 5665 5668 5671 5674 5676 5679 5681 5683 5687 5692 5695 5698 5701 5699 5698 5699 5703 5707 5710 5711 5713 5715 5717 5717 5718 5720 5722 5724 5726 5728 5731 5733 5735 5737 5738 5740 5742 5744 5746 5747 5750 5752 5753 5754 5755 5756 5758 5759 5759 5760 5760 5760 5760 5761 5761 5761 5762 5763 5763 5763 5762 5762 5761 5761 5760 5760 5759 5758 5757 5756 5755 5754 5754
5633 5637 5639 5642 5644 5647 5649 5651 5653 5655 5657 5660 5662 5664 5667 5670 5672 5675 5677 5679 5681 5685 5689 5692 5696 5698 5696 5694 5696 5701 5705 5707 5709 5711 5714 5714 5715 5717 5718 5720 5722 5724 5726 5729 5730 5732 5734 5735 5737 5740 5741 5743 5745 5747 5749 5750 5751 5753 5754 5755 5756 5756 5757 5757 5757 5757 5757 5758 5758 5759 5759 5759 5759 5758 5758 5757 5757 5756 5756 5755 5754 5753 5753 5752 5751 5751
5632 5635 5637 5640 5643 5645 5647 5649 5651 5653 5655 5658 5660 5663 5665 5668 5670 5672 5675 5676 5679 5682 5685 5688 5692 5694 5692 5690 5694 5699 5702 5703 5706 5708 5710 5711 5712 5714 5716 5718 5720 5722 5724 5726 5728 5729 5731 5733 5735 5737 5739 5741 5743 5744 5746 5747 5749 5750 5751 5752 5753 5753 5754 5754 5754 5754 5754 5755 5755 5756 5756 5756 5755 5755 5754 5754 5753 5752 5752 5751 5750 5750 5749 5749 5748 5748
5630 5633 5635 5638 5640 5642 5645 5647 5649 5651 5653 5656 5659 5661 5663 5665 5667 5669 5672 5674 5676 5679 5682 5685 5688 5690 5688 5688 5693 5697 5698 5699 5701 5704 5706 5708 5709 5711 5713 5716 5718 5720 5722 5723 5725 5727 5728 5730 5733 5735 5736 5738 5740 5742 5743 5745 5746 5747 5748 5749 5749 5750 5750 5750 5750 5751 5751 5751 5752 5753 5753 5752 5752 5751 5750 5750 5749 5749 5748 5747 5747 5746 5746 5745 5745 5745
5629 5631 5634 5636 5639 5641 5644 5646 5648 5649 5651 5654 5657 5658 5660 5662 5664 5666 5668 5670 5673 5676 5679 5682 5685 5685 5684 5686 5691 5693 5694 5695 5697 5700 5704 5705 5707 5709 5711 5713 5716 5718 5719 5721 5723 5724 5726 5728 5730 5731 5733 5735 5737 5739 5741 5742 5743 5744 5744 5745 5746 5746 5747 5747 5747 5747 5748 5748 5749 5749 5749 5749 5748 5747 5746 5746 5745 5745 5744 5744 5743 5742 5742 5742 5741 5742
5627 5629 5632 5634 5637 5640 5642 5645 5646 5647 5650 5652 5654 5656 5658 5660 5661 5663 5665 5667 5670 5673 5676 5679 5682 5681 5680 5683 5687 5689 5690 5692 5694 5697 5700 5702 5704 5706 5708 5711 5713 5715 5717 5719 5720 5722 5724 5725 5727 5728 5730 5732 5734 5736 5737 5738 5739 5740 5740 5741 5742 5743 5743 5743 5744 5744 5744 5745 5745 5745 5745 5744 5744 5743 5742 5742 5741 5740 5740 5739 5739 5739 5738 5738 5738 5739
5627 5629 5631 5634 5636 5638 5640 5643 5644 5645 5648 5650 5652 5654 5655 5656 5659 5661 5663 5665 5668 5670 5673 5676 5678 5677 5676 5679 5684 5686 5688 5691 5692 5694 5697 5699 5701 5703 5706 5708 5711 5713 5715 5716 5718 5720 5721 5722 5724 5725 5727 5729 5731 5732 5733 5734 5735 5736 5737 5738 5739 5739 5740 5740 5740 5741 5741 5741 5742 5741 5741 5740 5740 5739 5738 5737 5737 5736 5736 5735 5735 5734 5734 5735 5735 5736
5627 5629 5631 5634 5636 5638 5639 5640 5641 5643 5646 5648 5650 5652 5654 5655 5658 5660 5662 5664 5666 5668 5670 5672 5674 5674 5674 5678 5682 5684 5686 5688 5689 5691 5694 5696 5698 5701 5703 5705 5708 5710 5711 5713 5715 5717 5718 5719 5720 5722 5724 5726 5727 5729 5730 5731 5731 5732 5733 5734 5735 5735 5736 5736 5737 5737 5737 5737 5737 5737 5736 5736 5735 5734 5733 5733 5732 5732 5731 5731 5731 5731 5731 5731 5732 5733
5624 5627 5629 5631 5633 5635 5637 5638 5639 5642 5645 5647 5648 5650 5652 5653 5655 5657 5659 5661 5663 5666 5667 5669 5671 5672 5674 5676 5679 5681 5683 5685 5686 5688 5691 5693 5696 5698 5700 5702 5704 5706 5708 5709 5711 5713 5714 5716 5718 5719 5721 5722 5724 5725 5726 5727 5728 5729 5730 5730 5731 5731 5732 5733 5733 5733 5733 5733 5733 5732 5732 5731 5730 5730 5729 5728 5728 5728 5727 5727 5727 5727 5728 5729 5730 5730
5624 5626 5628 5630 5631 5633 5635 5637 5639 5641 5643 5645 5646 5648 5649 5651 5652 5654 5656 5658 5660 5662 5664 5666 5668 5669 5670 5673 5675 5677 5679 5681 5683 5686 5688 5691 5693 5695 5697 5698 5700 5702 5704 5705 5707 5709 5711 5713 5715 5716 5717 5719 5720 5722 5723 5723 5725 5726 5726 5727 5727 5728 5728 5729 5729 5729 5729 5729 5728 5728 5727 5727 5726 5725 5724 5724 5723 5723 5723 5724 5724 5724 5725 5726 5727 5727
5624 5626 5627 5629 5631 5633 5634 5636 5637 5639 5641 5642 5645 5646 5647 5649 5650 5651 5653 5655 5657 5659 5661 5663 5665 5666 5667 5670 5673 5675 5676 5678 5680 5683 5685 5688 5689 5691 5693 5694 5696 5699 5700 5701 5703 5705 5707 5709 5711 5712 5714 5715 5717 5718 5719 5719 5721 5722 5723 5723 5723 5724 5725 5725 5725 5725 5725 5724 5723 5723 5723 5722 5721 5720 5720 5720 5720 5720 5720 5721 5721 5722 5723 5724 5724 5724
5622 5624 5626 5628 5630 5631 5632 5634 5636 5637 5639 5640 5642 5644 5645 5646 5649 5650 5652 5653 5654 5656 5658 5660 5662 5663 5665 5667 5670 5672 5673 5675 5677 5680 5683 5685 5686 5687 5689 5690 5692 5695 5697 5697 5699 5701 5704 5705 5706 5708 5710 5711 5712 5713 5714 5715 5716 5717 5718 5718 5719 5720 5721 5721 5721 5721 5720 5719 5719 5719 5718 5717 5717 5717 5717 5717 5717 5716 5717 5718 5718 5719 5720 5720 5721 5721
5620 5622 5624 5625 5627 5628 5630 5632 5634 5635 5637 5639 5640 5641 5642 5644 5647 5649 5650 5651 5652 5654 5656 5657 5659 5661 5663 5665 5667 5669 5671 5672 5674 5677 5679 5682 5683 5683 5685 5687 5689 5691 5693 5694 5695 5697 5699 5700 5701 5703 5705 5706 5707 5708 5709 5711 5712 5713 5714 5715 5715 5716 5717 5717 5716 5716 5716 5715 5714 5714 5714 5713 5713 5714 5714 5713 5713 5713 5714 5714 5715 5716 5717 5717 5718 5718
5619 5620 5621 5623 5624 5626 5628 5630 5632 5633 5635 5637 5638 5640 5641 5643 5645 5647 5648 5650 5651 5652 5654 5655 5657 5659 5660 5662 5664 5666 5668 5669 5671 5673 5676 5678 5680 5680 5682 5683 5685 5687 5689 5690 5691 5693 5694 5695 5697 5698 5700 5702 5704 5705 5706 5707 5708 5709 5710 5711 5712 5712 5712 5712 5712 5712 5712 5711 5710 5710 5710 5710 5710 5710 5710 5710 5710 5710 5711 5711 5712 5713 5714 5714 5715 5715
5618 5619 5621 5622 5624 5626 5628 5629 5630 5631 5633 5635 5636 5638 5640 5641 5642 5644 5646 5648 5649 5651 5652 5653 5655 5656 5658 5659 5661 5663 5664 5666 5668 5670 5672 5674 5676 5677 5679 5680 5681 5683 5685 5686 5687 5688 5690 5691 5693 5694 5696 5698 5700 5701 5702 5703 5704 5705 5706 5707 5708 5708 5708 5708 5708 5708 5707 5707 5707 5707 5707 5707 5706 5706 5706 5707 5707 5708 5708 5709 5709 5710 5711 5711 5712 5712